Weather in Hamburg

Germany     53˚33′09″N   9˚57′58″E
temp.,
°C
wind,
m/s
gust,
m/s
humid.,
%
clouds,
%
prec.,
mm/h
press.,
hPa
HPBL,
m
1 december, tue
tue101:00+3˚s41093100 1.8 1010466
04:00+3˚s3795100 0.3 1009352
07:00+3˚se2595100 0.4 1010201
10:00+3˚ese249390 0.0 1013208
13:00+4˚e359294 0.0 1015289
16:00+4˚e359395 0.0 1017286
19:00+3˚e369397 0.0 1020279
22:00+3˚e259297 0.0 1021287
2 december, wed
wed201:00+2˚e259495 0.0 1022192
04:00+1˚ene249742 0.0 1021134
07:00e229636 0.0 102168
10:00+3˚ese239282 0.0 1020197
13:00+4˚ese238991 0.0 1018262
16:00+3˚ese2391100 0.0 1016155
19:00+2˚se268597 0.0 1015269
22:00+1˚se258778 0.0 1013180
3 december, thu
thu301:00−1˚se258853 0.0 1011136
04:00−1˚sse258585 0.0 1008183
07:00−1˚sse258692 0.0 1006162
10:00+2˚s3687100 0.0 1004421
13:00+4˚s3681100 0.0 1002637
16:00+3˚sse3782100 0.0 1000442
19:00+2˚se4980100 0.0 999449
22:00+1˚se3885100 0.0 997356
4 december, fri
fri401:00+1˚se3890100 0.0 995367
04:00se3892100 0.0 994311
07:00−1˚ese4991100 0.0 993291
10:00ese4980100 0.0 993369
13:00+1˚ese4873100 0.0 992380
16:00ese387698 0.0 991318
19:00−1˚ese388599 0.0 991283
22:00ese3798100 0.0 992230
5 december, sat
sat501:00+1˚e379793 0.0 991233
04:00+2˚ene3896100 0.0 991329
07:00+1˚ene3796100 0.0 991264
10:00+2˚ene3789100 0.0 992356
13:00+2˚e2487100 0.0 992342
16:00+1˚se229697 0.0 99359
19:00sse239698 0.0 99464
22:00sse2296100 0.0 99646